TimeMDT,TemperatureF,Dew PointF,Humidity,Sea Level PressureIn,VisibilityMPH,Wind Direction,Wind SpeedMPH,Gust SpeedMPH,PrecipitationIn,Events,Conditions,WindDirDegrees,DateUTC
12:15 AM,19.4,12.2,74,29.97,10.0,North,3.5,-,N/A,,Scattered Clouds,350,2013-03-19 06:15:00
12:35 AM,21.2,10.4,63,29.98,10.0,NNW,3.5,-,N/A,,Clear,330,2013-03-19 06:35:00
12:55 AM,19.4,10.4,68,29.99,10.0,West,5.8,-,N/A,,Clear,260,2013-03-19 06:55:00
1:15 AM,19.4,10.4,68,29.99,10.0,West,6.9,-,N/A,,Clear,280,2013-03-19 07:15:00
1:55 AM,21.2,10.4,63,30.01,10.0,West,9.2,-,N/A,,Scattered Clouds,280,2013-03-19 07:55:00
2:15 AM,17.6,10.4,73,30.02,10.0,NW,5.8,-,N/A,,Scattered Clouds,320,2013-03-19 08:15:00
2:35 AM,19.4,10.4,68,30.03,10.0,NW,6.9,-,N/A,,Scattered Clouds,310,2013-03-19 08:35:00
2:55 AM,17.6,10.4,73,30.03,10.0,NNW,4.6,-,N/A,,Scattered Clouds,330,2013-03-19 08:55:00
3:15 AM,14.0,8.6,79,30.03,10.0,NW,4.6,-,N/A,,Clear,320,2013-03-19 09:15:00
3:35 AM,14.0,8.6,79,30.04,10.0,NNW,5.8,-,N/A,,Clear,330,2013-03-19 09:35:00
3:55 AM,14.0,8.6,79,30.04,10.0,NW,4.6,-,N/A,,Clear,320,2013-03-19 09:55:00
4:15 AM,12.2,8.6,85,30.04,10.0,WSW,4.6,-,N/A,,Clear,250,2013-03-19 10:15:00
4:35 AM,12.2,8.6,85,30.05,10.0,NE,6.9,-,N/A,,Clear,50,2013-03-19 10:35:00
4:55 AM,12.2,6.8,79,30.05,10.0,West,3.5,-,N/A,,Clear,260,2013-03-19 10:55:00
5:15 AM,12.2,6.8,79,30.05,10.0,West,4.6,-,N/A,,Clear,260,2013-03-19 11:15:00
5:35 AM,10.4,6.8,85,30.06,10.0,West,6.9,-,N/A,,Clear,260,2013-03-19 11:35:00
5:55 AM,10.4,6.8,85,30.07,10.0,NNW,5.8,-,N/A,,Clear,340,2013-03-19 11:55:00
6:15 AM,12.2,6.8,79,30.08,10.0,WNW,5.8,-,N/A,,Clear,300,2013-03-19 12:15:00
6:35 AM,10.4,5.0,79,30.09,10.0,WSW,5.8,-,N/A,,Clear,250,2013-03-19 12:35:00
6:55 AM,10.4,5.0,79,30.09,10.0,WSW,6.9,-,N/A,,Scattered Clouds,250,2013-03-19 12:55:00
7:15 AM,8.6,5.0,85,30.09,10.0,WNW,4.6,-,N/A,,Scattered Clouds,300,2013-03-19 13:15:00
7:35 AM,8.6,5.0,85,30.10,10.0,NNW,5.8,-,N/A,,Clear,330,2013-03-19 13:35:00
7:55 AM,10.4,5.0,79,30.11,10.0,WSW,5.8,-,N/A,,Clear,250,2013-03-19 13:55:00
8:15 AM,10.4,6.8,85,30.11,10.0,West,5.8,-,N/A,,Clear,280,2013-03-19 14:15:00
8:35 AM,14.0,8.6,79,30.12,10.0,West,5.8,-,N/A,,Clear,280,2013-03-19 14:35:00
8:55 AM,19.4,10.4,68,30.13,10.0,West,8.1,-,N/A,,Scattered Clouds,270,2013-03-19 14:55:00
9:15 AM,23.0,8.6,54,30.13,10.0,NW,8.1,-,N/A,,Scattered Clouds,310,2013-03-19 15:15:00
9:35 AM,24.8,8.6,50,30.14,10.0,NW,12.7,-,N/A,,Scattered Clouds,310,2013-03-19 15:35:00
9:55 AM,26.6,6.8,43,30.14,10.0,WNW,15.0,-,N/A,,Scattered Clouds,290,2013-03-19 15:55:00
10:15 AM,26.6,5.0,40,30.14,10.0,WNW,13.8,19.6,N/A,,Scattered Clouds,290,2013-03-19 16:15:00
10:35 AM,28.4,5.0,37,30.15,10.0,WNW,13.8,21.9,N/A,,Scattered Clouds,300,2013-03-19 16:35:00
10:55 AM,28.4,3.2,34,30.16,10.0,NW,15.0,20.7,N/A,,Clear,310,2013-03-19 16:55:00
11:15 AM,30.2,3.2,32,30.16,10.0,WNW,15.0,20.7,N/A,,Scattered Clouds,300,2013-03-19 17:15:00
11:35 AM,32.0,1.4,27,30.17,10.0,WNW,16.1,23.0,N/A,,Scattered Clouds,290,2013-03-19 17:35:00
11:55 AM,32.0,-0.4,25,30.18,10.0,NW,16.1,24.2,N/A,,Clear,310,2013-03-19 17:55:00
12:15 PM,32.0,-2.2,23,30.18,10.0,WNW,15.0,23.0,N/A,,Clear,290,2013-03-19 18:15:00
12:35 PM,32.0,-4.0,21,30.18,10.0,WNW,19.6,27.6,N/A,,Clear,300,2013-03-19 18:35:00
12:55 PM,33.8,-4.0,20,30.17,10.0,WNW,19.6,27.6,N/A,,Clear,290,2013-03-19 18:55:00
1:15 PM,33.8,-5.8,18,30.16,10.0,West,23.0,28.8,N/A,,Clear,280,2013-03-19 19:15:00
1:35 PM,33.8,-5.8,18,30.17,10.0,NW,21.9,29.9,N/A,,Clear,310,2013-03-19 19:35:00
1:55 PM,35.6,-5.8,17,30.17,10.0,WNW,20.7,28.8,N/A,,Clear,300,2013-03-19 19:55:00
2:15 PM,35.6,-7.6,16,30.17,10.0,WNW,25.3,29.9,N/A,,Clear,300,2013-03-19 20:15:00
2:35 PM,35.6,-5.8,17,30.17,10.0,WNW,23.0,31.1,N/A,,Clear,290,2013-03-19 20:35:00
2:55 PM,35.6,-5.8,17,30.17,10.0,NW,18.4,27.6,N/A,,Clear,310,2013-03-19 20:55:00
3:15 PM,35.6,-5.8,17,30.18,10.0,NW,17.3,26.5,N/A,,Clear,310,2013-03-19 21:15:00
3:35 PM,37.4,-4.0,17,30.18,10.0,NW,17.3,21.9,N/A,,Clear,310,2013-03-19 21:35:00
3:55 PM,35.6,-5.8,17,30.18,10.0,West,16.1,25.3,N/A,,Clear,280,2013-03-19 21:55:00
4:15 PM,35.6,-5.8,17,30.18,10.0,WNW,17.3,23.0,N/A,,Scattered Clouds,300,2013-03-19 22:15:00
4:35 PM,35.6,-5.8,17,30.19,10.0,WNW,13.8,24.2,N/A,,Scattered Clouds,300,2013-03-19 22:35:00
4:55 PM,35.6,-5.8,17,30.19,10.0,NW,15.0,24.2,N/A,,Mostly Cloudy,320,2013-03-19 22:55:00
5:15 PM,35.6,-5.8,17,30.19,10.0,WNW,11.5,21.9,N/A,,Mostly Cloudy,290,2013-03-19 23:15:00
5:35 PM,35.6,-5.8,17,30.19,10.0,WNW,12.7,20.7,N/A,,Mostly Cloudy,300,2013-03-19 23:35:00
5:55 PM,35.6,-4.0,18,30.19,10.0,West,12.7,19.6,N/A,,Scattered Clouds,280,2013-03-19 23:55:00
6:15 PM,35.6,-5.8,17,30.19,10.0,West,12.7,-,N/A,,Scattered Clouds,270,2013-03-20 00:15:00
6:35 PM,33.8,-5.8,18,30.19,10.0,West,12.7,16.1,N/A,,Mostly Cloudy,280,2013-03-20 00:35:00
6:55 PM,33.8,-4.0,20,30.19,10.0,WNW,9.2,-,N/A,,Scattered Clouds,290,2013-03-20 00:55:00
7:15 PM,32.0,-0.4,25,30.20,10.0,West,3.5,-,N/A,,Scattered Clouds,260,2013-03-20 01:15:00
7:35 PM,32.0,-0.4,25,30.20,10.0,West,4.6,-,N/A,,Clear,270,2013-03-20 01:35:00
7:55 PM,26.6,1.4,34,30.20,10.0,West,6.9,-,N/A,,Clear,280,2013-03-20 01:55:00
8:15 PM,24.8,3.2,40,30.21,10.0,Calm,Calm,-,N/A,,Clear,0,2013-03-20 02:15:00
8:35 PM,28.4,3.2,34,30.21,10.0,WNW,4.6,-,N/A,,Clear,290,2013-03-20 02:35:00
8:55 PM,23.0,6.8,50,30.22,10.0,NNE,3.5,-,N/A,,Clear,30,2013-03-20 02:55:00
9:15 PM,23.0,5.0,46,30.22,10.0,North,3.5,-,N/A,,Clear,360,2013-03-20 03:15:00
9:35 PM,23.0,5.0,46,30.22,10.0,Calm,Calm,-,N/A,,Clear,0,2013-03-20 03:35:00
9:55 PM,24.8,3.2,40,30.22,10.0,Calm,Calm,-,N/A,,Clear,0,2013-03-20 03:55:00
10:15 PM,19.4,5.0,54,30.22,10.0,NW,4.6,-,N/A,,Clear,310,2013-03-20 04:15:00
10:35 PM,19.4,6.8,58,30.22,10.0,Calm,Calm,-,N/A,,Clear,0,2013-03-20 04:35:00
10:55 PM,17.6,6.8,63,30.22,10.0,Calm,Calm,-,N/A,,Scattered Clouds,0,2013-03-20 04:55:00
11:15 PM,19.4,8.6,63,30.22,10.0,Calm,Calm,-,N/A,,Scattered Clouds,0,2013-03-20 05:15:00
11:35 PM,19.4,8.6,63,30.21,10.0,Calm,Calm,-,N/A,,Mostly Cloudy,0,2013-03-20 05:35:00
11:55 PM,15.8,8.6,73,30.21,10.0,WNW,4.6,-,N/A,,Mostly Cloudy,290,2013-03-20 05:55:00